Regional Weather Roundup
Issued by NWS

Home | Current Version | Previous Version | Text Only | Print | Product List | Glossary Off
Versions: 1 2 3 4 5 6 7 8 9 10 11 12 13 14 15 16 17 18 19 20 21 22 23 24 25 26 27 28 29 30 31 32 33 34 35 36 37 38 39 40 41 42 43 44 45 46 47 48 49 50

000
ASUS45 KSLC 042110
RWRUT

UTAH REGIONAL WEATHER ROUNDUP
NATIONAL WEATHER SERVICE SALT LAKE CITY UT
300 PM MDT WED MAY 04 2016

UTZ001>011-023>025-042200-

NORTHERN UTAH

CITY           SKY/WX    TMP DP  RH WIND       PRES   REMARKS
BRIGHAM CITY   MOSUNNY   76  29  17 SW6       30.07F
HILL AFB       SUNNY     75  33  22 SW7       30.07F
LOGAN          MOSUNNY   74  34  23 W5        30.07F
OGDEN          MOSUNNY   76  31  19 W8        30.06F
PROVO AIRPORT  PTSUNNY   75  34  22 VRB6      30.07F
SALT LAKE CITY PTSUNNY   80  27  14 S17G24    30.04F
VERNAL         SUNNY     74  24  15 SW10      30.16F
WENDOVER       PTSUNNY   72  36  26 SE6       30.05F
HEBER CITY     MOSUNNY   75  32  20 SW12      30.10F

$$

UTZ012>022-026-027-042200-

SOUTHERN/CENTRAL UTAH

CITY           SKY/WX    TMP DP  RH WIND       PRES   REMARKS
BLANDING       SUNNY     73  27  18 SW7       30.29F
BRYCE CANYON   SUNNY     66  26  22 SE13G22   30.25F
CEDAR CITY     MOSUNNY   77  27  15 S14       30.07F
DELTA          MOSUNNY   77  28  16 SE15      30.05F
HANKSVILLE     MOSUNNY   81  28  15 S14G23    30.11F
MILFORD        MOSUNNY   80  28  15 S16G25    30.03F
MOAB/CYNLANDS  SUNNY     80  25  13 S8        30.10F
PRICE          SUNNY     72  26  18 S16G24    30.18F
ST GEORGE      PTCLDY    90  30  12 SW13      29.92F

$$

REGIONAL REPORTS     COLORADO/ARIZONA

CITY           SKY/WX    TMP DP  RH WIND       PRES   REMARKS
CRAIG, CO      SUNNY     72  27  18 MISG      30.20F
GRAND JUNCTION SUNNY     75  31  19 NW8G20    30.15F
RIFLE          SUNNY     75  26  16 NW6       30.16F
MONTROSE       SUNNY     75  26  16 NE7       30.20F
CORTEZ         SUNNY     74  24  15 W12G21    30.23F
PAGE, AZ       SUNNY     84  23  10 S13G18    30.06F
GRAND CANYON   SUNNY     75  20  12 S10G22    30.18F
KINGMAN        SUNNY     88  24  10 S17G23    29.95F
FLAGSTAFF      SUNNY     71  21  15 S17G23    30.22F

$$

REGIONAL REPORTS    NEVADA/IDAHO/WYOMING

CITY           SKY/WX    TMP DP  RH WIND       PRES   REMARKS
LAS VEGAS, NV  MOSUNNY   90  31  12 SE9       29.84F
ELY            MOSUNNY   71  30  21 S20G31    30.08F
ELKO           PTSUNNY   73  34  23 S12G20    30.01F
POCATELLO, ID  MOSUNNY   78  30  17 S13G26    30.06F
BURLEY         PTSUNNY   77  31  18 S13G22    29.99F
EVANSTON, WY   SUNNY     70  25  18 SW17G24   30.19F
ROCK SPRINGS   SUNNY     69  20  15 VRB6      30.19F
KEMMERER         N/A     68  19  15 CALM      30.21F

$$



USA.gov is the U.S. government's official web portal to all federal, state and local government web resources and services.